Regional Weather Roundup
Issued by NWS Sioux Falls, SD

Home | Current Version | Previous Version | Text Only | Print | Product List | Glossary Off
Versions: 1 2 3 4 5 6 7 8 9 10 11 12 13 14 15 16 17 18 19 20 21 22 23 24 25 26 27 28 29 30 31 32 33 34 35 36 37 38 39 40 41 42 43 44 45 46 47 48 49 50

000
ASUS43 KFSD 280802
RWRFSD

WEATHER ROUNDUP FOR SE SOUTH DAKOTA/SW MINNESOTA/NW IOWA
NATIONAL WEATHER SERVICE SIOUX FALLS SD
200 AM CST TUE FEB 28 2017

NOTE: "FAIR" INDICATES FEW OR NO CLOUDS BELOW 12,000 FEET WITH NO
SIGNIFICANT WEATHER AND OR OBSTRUCTIONS TO VISIBILITY.


SDZ038>040-050-052>070-280900-
SOUTHEAST SOUTH DAKOTA

CITY           SKY/WX    TMP DP  RH WIND       PRES   REMARKS
BROOKINGS      MOCLDY    36  29  75 N5        29.71F
CHAMBERLAIN    CLOUDY    35  30  80 N12       29.69F WCI  27
HURON          CLOUDY    31  29  92 NE7       29.71F WCI  24
MADISON        CLOUDY    32  32 100 N9        29.70R WCI  24
MITCHELL       LGT RAIN  34  30  85 N12       29.69F WCI  25
SIOUX FALLS    PTCLDY    34  31  88 NE6       29.67F WCI  29
WINNER         FAIR      31  26  82 N7        29.69R WCI  24
YANKTON        CLOUDY    34  27  75 NE5       29.64F WCI  30
$$

MNZ071-072-080-081-089-090-097-098-280900-
SOUTHWEST MINNESOTA

CITY           SKY/WX    TMP DP  RH WIND       PRES   REMARKS
FAIRMONT       PTCLDY    35  31  85 SE6       29.72F
JACKSON        CLOUDY    36  32  87 SE3       29.71F
LUVERNE        MOCLDY    34  30  86 NE6       29.69S WCI  29
MARSHALL       CLOUDY    32  30  92 N9        29.74F WCI  24
MONTEVIDEO     CLOUDY    34  30  86 CALM      29.79R
PIPESTONE      CLOUDY    37  28  70 SE5       29.68F
REDWOOD FALLS  CLOUDY    35  29  78 CALM      29.74S
TRACY          CLOUDY    31  30  96 NW7       29.72F FOG     WCI  25
WINDOM         CLOUDY    36  30  80 CALM      29.70F
WORTHINGTON    PTCLDY    34  30  85 E3        29.70F
$$

IAZ001>003-012>014-020>022-031-032-NEZ013-014-SDZ071-280900-
NORTHWEST IOWA

CITY           SKY/WX    TMP DP  RH WIND       PRES   REMARKS
CHEROKEE       CLOUDY    37  32  83 CALM      29.67F
DENISON        CLOUDY    39  32  75 E6        29.63F
ESTHERVILLE    PTCLDY    33  32  96 S7        29.70F WCI  27
LE MARS        CLOUDY    37  30  75 NE6       29.65F
SHELDON        MOCLDY    36  36 100 E5        29.66F
SIOUX CITY     CLOUDY    38  30  73 E5        29.63F
SPENCER        PTCLDY    35  30  82 E6        29.69F
STORM LAKE     CLOUDY    36  32  87 SE13      29.67F
$$

ABBREVIATIONS USED IN REMARKS
   TC - TEMPERATURE IN CELSIUS
  WCI - WIND CHILL INDEX
   HX - HEAT INDEX
  VSB - VISIBILITY





USA.gov is the U.S. government's official web portal to all federal, state and local government web resources and services.